Overview Statistics Trail Chart Weather Telemetry Raw packets
 

This is the latest recevied weather packets stored in our database for station/object GUNLAK-WX. If no packets are shown the sender has not sent any weather packets the latest 10 day(s).

<< 1 2 3 4 5 >>
Time Temp. Humidity Pressure Rain* Wind** Luminosity Snow
1788556581 26.11° C 77% 986.4 hPa 0 mm - - -
1788555680 25.56° C 77% 986.4 hPa 0 mm - - -
1788554779 25.56° C 80% 986.4 hPa 0 mm - - -
1788553879 25.56° C 78% 986.6 hPa 0 mm - - -
1788552973 25.56° C 78% 986.6 hPa 0 mm - - -
1788552074 25.56° C 74% 986.5 hPa 0 mm - - -
1788551181 25.56° C 75% 986.4 hPa 0 mm - - -
1788550280 25° C 75% 986.4 hPa 0 mm - - -
1788549375 26.11° C 75% 986.5 hPa 0 mm - - -
1788548473 25.56° C 75% 986.5 hPa 0 mm - - -
1788547575 25° C 78% 986.9 hPa 0 mm - - -
1788546678 25.56° C 78% 987.1 hPa 0 mm - - -
1788545781 25.56° C 78% 987.1 hPa 0 mm - - -
1788544879 25° C 78% 987.1 hPa 0 mm - - -
1788543980 23.89° C 88% 987.3 hPa 2.29 mm - - -
1788543072 22.78° C 87% 987.6 hPa 4.57 mm - - -
1788542181 22.22° C 87% 987.6 hPa 4.57 mm - - -
1788541273 21.11° C 87% 987.6 hPa 4.57 mm - - -
1788540371 21.67° C 80% 988.5 hPa 0.51 mm - - -
1788539473 21.67° C 90% 988.2 hPa 0.51 mm - - -
1788538576 23.33° C 90% 988.2 hPa 0 mm - - -
1788537673 23.33° C 90% 988.2 hPa 0 mm - - -
1788536779 22.78° C 94% 986.7 hPa 0.51 mm - - -
1788535879 22.78° C 86% 988.2 hPa 0.51 mm - - -
1788534973 22.78° C 86% 988.3 hPa 0 mm - - -

* Rain latest hour (hover to see other rain measurements)
** Current wind speed in m/s (hover to see current wind gust speed)